Flag for Mauritania Weather past 2 weeks in Nouadhibou, Mauritania

Now
73 °F

Clear.


Feels Like: 73 °F
Forecast: 72 / 81 °F
Wind: 13 mph from Northwest

Location: Nouadhibou Airport

Current Time: Aug 22, 2014 at 2:02:05 AM

Latest Report: Aug 22, 2014 at 1:00 AM


Visibility: 5 mi

Pressure: 29.89 "Hg

Humidity: 83%

Dew point: 68 °F

Location of NouadhibouLocation

Historic Weather in Nouadhibou — Graph

°F

Nouadhibou temperature yesterday

Maximum temperature yesterday: 86 °F (at 12:00 PM)
Minimum temperature yesterday: 73 °F (at 12:00 AM)
Average temperature yesterday: 78 °F

Past Weeks' High & Low Weather Summary

 TemperatureHumidityPressure
High86 °F (Aug 8, 12:00 PM)94% (Aug 11, 11:00 PM)30.01 "Hg (Aug 11, 11:00 PM)
Low68 °F (Aug 7, 6:00 AM)46% (Aug 8, 12:00 PM)29.74 "Hg (Aug 7, 5:00 PM)
Average73 °F79%29.87 "Hg
* Reported Aug 7 1:00 AM — Aug 22 1:00 AM, Nouadhibou, Weather by CustomWeather, © 2014

Note: Actual official high and low records may vary slightly from our data, if they occured in-between our weather recording intervals... More about our weather records

Advertising

Nouadhibou weather history for previous 24 hours

 ConditionsComfort  
Time TempWeatherWind HumidityBarometerVisibility
1:00 AM
Aug 22
73 °FClear.13 mph83%29.89 "Hg5 mi
12:00 AM73 °FClear.10 mph83%29.89 "Hg5 mi
11:00 PM
Aug 21
73 °FClear.14 mph83%29.92 "Hg5 mi
10:00 PM73 °FClear.14 mph83%29.89 "Hg5 mi
9:00 PM73 °FClear.14 mph83%29.89 "Hg5 mi
8:00 PM75 °FClear.15 mph78%29.86 "Hg5 mi
7:00 PM77 °FClear.16 mph74%29.86 "Hg5 mi
6:00 PM79 °FScattered clouds.14 mph70%29.86 "Hg5 mi
5:00 PM84 °FScattered clouds.16 mph58%29.86 "Hg5 mi
4:00 PM86 °FScattered clouds.15 mph55%29.86 "Hg5 mi
3:00 PM84 °FClear.16 mph58%29.89 "Hg5 mi
2:00 PM84 °FClear.17 mph58%29.89 "Hg5 mi
1:00 PM82 °FClear.13 mph62%29.95 "Hg5 mi
12:00 PM86 °FClear.9 mph59%29.98 "Hg5 mi
11:00 AM84 °FClear.6 mph58%30.01 "Hg5 mi
9:00 AM77 °FClear.8 mph79%29.98 "Hg5 mi
8:00 AM73 °FClear.7 mph89%29.98 "Hg5 mi
7:00 AM73 °FClear.7 mph89%29.98 "Hg5 mi
5:00 AM73 °FClear.1 mph83%29.98 "Hg5 mi
4:00 AM73 °FClear.1 mph89%29.98 "Hg5 mi
3:00 AM73 °FClear.5 mph83%29.98 "Hg5 mi
2:00 AM73 °FClear.5 mph83%29.98 "Hg5 mi
Weather by CustomWeather, © 2014

See weather overviewHow to use our weather pages